Time,TemperatureF,DewpointF,PressureIn,WindDirection,WindDirectionDegrees,WindSpeedMPH,WindSpeedGustMPH,Humidity,HourlyPrecipIn,Conditions,Clouds,dailyrainin,SoftwareType,DateUTC
2013-01-21 00:00:00,27.9,20.7,30.26,North,353,2.0,7.0,74,0.00,,,0.00,Wunderground v.1.15,2013-01-21 06:00:00,
2013-01-21 00:05:00,27.8,20.6,30.26,NNW,339,2.0,7.0,74,0.00,,,0.00,Wunderground v.1.15,2013-01-21 06:05:00,
2013-01-21 00:10:00,27.7,20.5,30.26,NNW,335,3.0,3.0,74,0.00,,,0.00,Wunderground v.1.15,2013-01-21 06:10:00,
2013-01-21 00:15:00,27.6,20.4,30.26,North,354,3.0,7.0,74,0.00,,,0.00,Wunderground v.1.15,2013-01-21 06:15:00,
2013-01-21 00:20:00,27.5,20.3,30.25,North,1,3.0,3.0,74,0.00,,,0.00,Wunderground v.1.15,2013-01-21 06:20:00,
2013-01-21 00:25:00,27.4,20.5,30.25,North,355,2.0,7.0,75,0.00,,,0.00,Wunderground v.1.15,2013-01-21 06:25:00,
2013-01-21 00:30:00,27.3,20.4,30.26,NNW,339,2.0,7.0,75,0.00,,,0.00,Wunderground v.1.15,2013-01-21 06:30:00,
2013-01-21 00:35:00,27.2,20.3,30.26,North,352,1.0,7.0,75,0.00,,,0.00,Wunderground v.1.15,2013-01-21 06:35:00,
2013-01-21 00:40:00,27.1,20.2,30.26,North,357,1.0,1.0,75,0.00,,,0.00,Wunderground v.1.15,2013-01-21 06:40:00,
2013-01-21 00:45:00,27.0,20.4,30.26,North,356,1.0,7.0,76,0.00,,,0.00,Wunderground v.1.15,2013-01-21 06:45:00,
2013-01-21 00:50:00,26.8,20.6,30.26,North,356,0.0,7.0,77,0.00,,,0.00,Wunderground v.1.15,2013-01-21 06:50:00,
2013-01-21 00:55:00,26.8,20.6,30.26,NNW,348,1.0,7.0,77,0.00,,,0.00,Wunderground v.1.15,2013-01-21 06:55:00,
2013-01-21 01:00:00,26.7,20.1,30.26,North,350,2.0,7.0,76,0.00,,,0.00,Wunderground v.1.15,2013-01-21 07:00:00,
2013-01-21 01:05:00,26.6,20.1,30.26,North,350,2.0,7.0,76,0.00,,,0.00,Wunderground v.1.15,2013-01-21 07:05:00,
2013-01-21 01:10:00,26.5,20.0,30.26,North,356,2.0,7.0,76,0.00,,,0.00,Wunderground v.1.15,2013-01-21 07:10:00,
2013-01-21 01:15:00,26.5,20.0,30.26,North,3,2.0,7.0,76,0.00,,,0.00,Wunderground v.1.15,2013-01-21 07:15:00,
2013-01-21 01:20:00,26.4,19.9,30.26,North,6,2.0,7.0,76,0.00,,,0.00,Wunderground v.1.15,2013-01-21 07:20:00,
2013-01-21 01:25:00,26.4,19.9,30.26,NNE,15,1.0,7.0,76,0.00,,,0.00,Wunderground v.1.15,2013-01-21 07:25:00,
2013-01-21 01:30:00,26.3,19.8,30.26,North,352,1.0,1.0,76,0.00,,,0.00,Wunderground v.1.15,2013-01-21 07:30:00,
2013-01-21 01:35:00,26.3,20.1,30.27,North,352,1.0,7.0,77,0.00,,,0.00,Wunderground v.1.15,2013-01-21 07:35:00,
2013-01-21 01:40:00,26.1,19.9,30.27,North,1,0.0,7.0,77,0.00,,,0.00,Wunderground v.1.15,2013-01-21 07:40:00,
2013-01-21 01:45:00,26.1,19.9,30.27,North,1,0.0,7.0,77,0.00,,,0.00,Wunderground v.1.15,2013-01-21 07:45:00,
2013-01-21 01:50:00,26.0,19.8,30.27,North,360,0.0,7.0,77,0.00,,,0.00,Wunderground v.1.15,2013-01-21 07:50:00,
2013-01-21 01:55:00,25.9,19.7,30.27,North,352,1.0,7.0,77,0.00,,,0.00,Wunderground v.1.15,2013-01-21 07:55:00,
2013-01-21 02:00:00,25.9,19.7,30.28,NW,326,1.0,7.0,77,0.00,,,0.00,Wunderground v.1.15,2013-01-21 08:00:00,
2013-01-21 02:05:00,25.8,19.6,30.28,NNW,331,1.0,7.0,77,0.00,,,0.00,Wunderground v.1.15,2013-01-21 08:05:00,
2013-01-21 02:10:00,25.7,19.5,30.28,NNW,343,1.0,1.0,77,0.00,,,0.00,Wunderground v.1.15,2013-01-21 08:10:00,
2013-01-21 02:15:00,25.7,19.8,30.28,NNW,343,0.0,7.0,78,0.00,,,0.00,Wunderground v.1.15,2013-01-21 08:15:00,
2013-01-21 02:20:00,25.6,19.7,30.28,NNW,341,0.0,7.0,78,0.00,,,0.00,Wunderground v.1.15,2013-01-21 08:20:00,
2013-01-21 02:25:00,25.6,19.7,30.28,NNW,341,0.0,7.0,78,0.00,,,0.00,Wunderground v.1.15,2013-01-21 08:25:00,
2013-01-21 02:30:00,25.5,19.6,30.28,NNW,341,0.0,7.0,78,0.00,,,0.00,Wunderground v.1.15,2013-01-21 08:30:00,
2013-01-21 02:35:00,25.4,19.5,30.28,NNW,341,0.0,7.0,78,0.00,,,0.00,Wunderground v.1.15,2013-01-21 08:35:00,
2013-01-21 02:45:00,25.2,19.3,30.29,NNW,341,0.0,7.0,78,0.00,,,0.00,Wunderground v.1.15,2013-01-21 08:45:00,
2013-01-21 02:50:00,25.1,19.5,30.30,NNW,341,0.0,7.0,79,0.00,,,0.00,Wunderground v.1.15,2013-01-21 08:50:00,
2013-01-21 02:55:00,25.0,19.4,30.30,NNW,341,0.0,7.0,79,0.00,,,0.00,Wunderground v.1.15,2013-01-21 08:55:00,
2013-01-21 03:00:00,24.9,19.3,30.30,NNW,331,0.0,7.0,79,0.00,,,0.00,Wunderground v.1.15,2013-01-21 09:00:00,
2013-01-21 03:05:00,25.0,19.4,30.30,NNW,346,1.0,7.0,79,0.00,,,0.00,Wunderground v.1.15,2013-01-21 09:05:00,
2013-01-21 03:10:00,25.1,19.8,30.30,North,357,1.0,1.0,80,0.00,,,0.00,Wunderground v.1.15,2013-01-21 09:10:00,
2013-01-21 03:15:00,25.3,19.7,30.30,NNW,341,2.0,2.0,79,0.00,,,0.00,Wunderground v.1.15,2013-01-21 09:15:00,
2013-01-21 03:20:00,25.5,19.6,30.30,NNW,340,1.0,7.0,78,0.00,,,0.00,Wunderground v.1.15,2013-01-21 09:20:00,
2013-01-21 03:25:00,25.7,19.8,30.30,NNW,336,1.0,7.0,78,0.00,,,0.00,Wunderground v.1.15,2013-01-21 09:25:00,
2013-01-21 03:30:00,25.8,19.6,30.29,NNW,331,2.0,2.0,77,0.00,,,0.00,Wunderground v.1.15,2013-01-21 09:30:00,
2013-01-21 03:35:00,25.9,19.4,30.29,NNW,340,2.0,7.0,76,0.00,,,0.00,Wunderground v.1.15,2013-01-21 09:35:00,
2013-01-21 03:40:00,25.9,19.1,30.29,NNW,344,2.0,7.0,75,0.00,,,0.00,Wunderground v.1.15,2013-01-21 09:40:00,
2013-01-21 03:45:00,25.9,18.7,30.29,NNW,338,2.0,7.0,74,0.00,,,0.00,Wunderground v.1.15,2013-01-21 09:45:00,
2013-01-21 03:50:00,25.9,18.7,30.29,North,349,2.0,2.0,74,0.00,,,0.00,Wunderground v.1.15,2013-01-21 09:50:00,
2013-01-21 03:55:00,25.9,18.7,30.29,NW,321,3.0,3.0,74,0.00,,,0.00,Wunderground v.1.15,2013-01-21 09:55:00,
2013-01-21 04:00:00,25.9,18.7,30.29,NNW,340,3.0,3.0,74,0.00,,,0.00,Wunderground v.1.15,2013-01-21 10:00:00,
2013-01-21 04:05:00,25.8,18.7,30.29,NNW,348,2.0,7.0,74,0.00,,,0.00,Wunderground v.1.15,2013-01-21 10:05:00,
2013-01-21 04:10:00,25.8,18.3,30.30,NNW,338,2.0,7.0,73,0.00,,,0.00,Wunderground v.1.15,2013-01-21 10:10:00,
2013-01-21 04:15:00,25.7,18.9,30.30,NNW,337,1.0,7.0,75,0.00,,,0.00,Wunderground v.1.15,2013-01-21 10:15:00,
2013-01-21 04:20:00,25.7,18.9,30.30,NNW,337,1.0,7.0,75,0.00,,,0.00,Wunderground v.1.15,2013-01-21 10:20:00,
2013-01-21 04:25:00,25.7,18.9,30.31,NNW,341,1.0,7.0,75,0.00,,,0.00,Wunderground v.1.15,2013-01-21 10:25:00,
2013-01-21 04:30:00,25.6,18.8,30.31,NNW,340,1.0,1.0,75,0.00,,,0.00,Wunderground v.1.15,2013-01-21 10:30:00,
2013-01-21 04:35:00,25.6,18.8,30.31,NNW,340,0.0,2.0,75,0.00,,,0.00,Wunderground v.1.15,2013-01-21 10:35:00,
2013-01-21 04:40:00,25.5,18.7,30.31,NNW,340,0.0,7.0,75,0.00,,,0.00,Wunderground v.1.15,2013-01-21 10:40:00,
2013-01-21 04:45:00,25.3,18.5,30.31,NNW,340,0.0,7.0,75,0.00,,,0.00,Wunderground v.1.15,2013-01-21 10:45:00,
2013-01-21 04:50:00,25.1,18.6,30.32,NNW,331,0.0,7.0,76,0.00,,,0.00,Wunderground v.1.15,2013-01-21 10:50:00,
2013-01-21 04:55:00,24.9,18.7,30.32,NNW,335,0.0,7.0,77,0.00,,,0.00,Wunderground v.1.15,2013-01-21 10:55:00,
2013-01-21 05:00:00,24.7,18.5,30.32,WNW,299,0.0,7.0,77,0.00,,,0.00,Wunderground v.1.15,2013-01-21 11:00:00,
2013-01-21 05:05:00,24.5,18.3,30.32,NNW,339,0.0,7.0,77,0.00,,,0.00,Wunderground v.1.15,2013-01-21 11:05:00,
2013-01-21 05:10:00,24.4,17.9,30.32,WNW,295,0.0,7.0,76,0.00,,,0.00,Wunderground v.1.15,2013-01-21 11:10:00,
2013-01-21 05:15:00,24.3,18.1,30.32,NW,326,1.0,7.0,77,0.00,,,0.00,Wunderground v.1.15,2013-01-21 11:15:00,
2013-01-21 05:20:00,24.3,18.4,30.33,NW,321,1.0,1.0,78,0.00,,,0.00,Wunderground v.1.15,2013-01-21 11:20:00,
2013-01-21 05:25:00,24.3,17.8,30.33,NNW,348,1.0,7.0,76,0.00,,,0.00,Wunderground v.1.15,2013-01-21 11:25:00,
2013-01-21 05:30:00,24.4,17.6,30.33,NNW,347,2.0,7.0,75,0.00,,,0.00,Wunderground v.1.15,2013-01-21 11:30:00,
2013-01-21 05:35:00,24.4,17.3,30.33,NW,316,2.0,7.0,74,0.00,,,0.00,Wunderground v.1.15,2013-01-21 11:35:00,
2013-01-21 05:40:00,24.4,17.3,30.33,NNW,331,1.0,1.0,74,0.00,,,0.00,Wunderground v.1.15,2013-01-21 11:40:00,
2013-01-21 05:45:00,24.5,17.7,30.33,NNW,331,1.0,7.0,75,0.00,,,0.00,Wunderground v.1.15,2013-01-21 11:45:00,
2013-01-21 05:50:00,24.3,17.5,30.33,NNW,339,0.0,7.0,75,0.00,,,0.00,Wunderground v.1.15,2013-01-21 11:50:00,
2013-01-21 05:55:00,24.2,17.1,30.33,NNW,348,1.0,7.0,74,0.00,,,0.00,Wunderground v.1.15,2013-01-21 11:55:00,
2013-01-21 06:00:00,24.2,17.1,30.34,NNW,342,1.0,7.0,74,0.00,,,0.00,Wunderground v.1.15,2013-01-21 12:00:00,
2013-01-21 06:05:00,24.2,16.8,30.34,NNW,337,1.0,7.0,73,0.00,,,0.00,Wunderground v.1.15,2013-01-21 12:05:00,
2013-01-21 06:10:00,24.2,17.1,30.34,NW,310,1.0,1.0,74,0.00,,,0.00,Wunderground v.1.15,2013-01-21 12:10:00,
2013-01-21 06:20:00,24.1,17.0,30.34,NNW,337,2.0,2.0,74,0.00,,,0.00,Wunderground v.1.15,2013-01-21 12:20:00,
2013-01-21 06:25:00,24.1,17.0,30.35,NW,314,2.0,3.0,74,0.00,,,0.00,Wunderground v.1.15,2013-01-21 12:25:00,
2013-01-21 06:30:00,24.0,16.9,30.35,NW,321,2.0,7.0,74,0.00,,,0.00,Wunderground v.1.15,2013-01-21 12:30:00,
2013-01-21 06:35:00,24.0,17.2,30.35,NW,326,2.0,7.0,75,0.00,,,0.00,Wunderground v.1.15,2013-01-21 12:35:00,
2013-01-21 06:40:00,24.0,17.5,30.35,NW,326,1.0,1.0,76,0.00,,,0.00,Wunderground v.1.15,2013-01-21 12:40:00,
2013-01-21 06:45:00,23.9,17.1,30.36,NNW,336,2.0,2.0,75,0.00,,,0.00,Wunderground v.1.15,2013-01-21 12:45:00,
2013-01-21 06:50:00,23.8,16.7,30.35,NNW,331,2.0,2.0,74,0.00,,,0.00,Wunderground v.1.15,2013-01-21 12:50:00,
2013-01-21 06:55:00,23.8,17.0,30.35,NW,326,2.0,7.0,75,0.00,,,0.00,Wunderground v.1.15,2013-01-21 12:55:00,
2013-01-21 07:00:00,23.7,16.6,30.35,NW,321,2.0,7.0,74,0.00,,,0.00,Wunderground v.1.15,2013-01-21 13:00:00,
2013-01-21 07:05:00,23.6,16.5,30.36,NW,321,2.0,7.0,74,0.00,,,0.00,Wunderground v.1.15,2013-01-21 13:05:00,
2013-01-21 07:10:00,23.6,16.5,30.36,WNW,303,1.0,7.0,74,0.00,,,0.00,Wunderground v.1.15,2013-01-21 13:10:00,
2013-01-21 07:15:00,23.4,16.9,30.36,NW,321,1.0,7.0,76,0.00,,,0.00,Wunderground v.1.15,2013-01-21 13:15:00,
2013-01-21 07:20:00,23.3,16.9,30.36,NW,306,0.0,7.0,76,0.00,,,0.00,Wunderground v.1.15,2013-01-21 13:20:00,
2013-01-21 07:25:00,23.1,16.0,30.36,NNW,342,2.0,7.0,74,0.00,,,0.00,Wunderground v.1.15,2013-01-21 13:25:00,
2013-01-21 07:30:00,23.0,15.6,30.36,NNW,343,2.0,2.0,73,0.00,,,0.00,Wunderground v.1.15,2013-01-21 13:30:00,
2013-01-21 07:35:00,22.9,15.5,30.37,NNW,348,2.0,5.0,73,0.00,,,0.00,Wunderground v.1.15,2013-01-21 13:35:00,
2013-01-21 07:40:00,22.9,15.5,30.37,NW,326,2.0,7.0,73,0.00,,,0.00,Wunderground v.1.15,2013-01-21 13:40:00,
2013-01-21 07:45:00,22.9,15.5,30.36,North,352,2.0,7.0,73,0.00,,,0.00,Wunderground v.1.15,2013-01-21 13:45:00,
2013-01-21 07:50:00,22.9,15.5,30.36,NNW,348,2.0,2.0,73,0.00,,,0.00,Wunderground v.1.15,2013-01-21 13:50:00,
2013-01-21 07:55:00,22.9,15.2,30.36,North,349,2.0,7.0,72,0.00,,,0.00,Wunderground v.1.15,2013-01-21 13:55:00,
2013-01-21 08:00:00,23.0,15.6,30.37,NNW,339,2.0,2.0,73,0.00,,,0.00,Wunderground v.1.15,2013-01-21 14:00:00,
2013-01-21 08:05:00,23.1,15.7,30.37,North,356,1.0,3.0,73,0.00,,,0.00,Wunderground v.1.15,2013-01-21 14:05:00,
2013-01-21 08:10:00,23.3,15.6,30.36,North,356,2.0,7.0,72,0.00,,,0.00,Wunderground v.1.15,2013-01-21 14:10:00,
2013-01-21 08:15:00,23.5,15.8,30.37,NW,321,2.0,7.0,72,0.00,,,0.00,Wunderground v.1.15,2013-01-21 14:15:00,
2013-01-21 08:25:00,24.0,16.0,30.37,NNW,331,2.0,7.0,71,0.00,,,0.00,Wunderground v.1.15,2013-01-21 14:25:00,
2013-01-21 08:30:00,24.2,15.5,30.38,NNW,344,3.0,3.0,69,0.00,,,0.00,Wunderground v.1.15,2013-01-21 14:30:00,
2013-01-21 08:35:00,24.4,15.3,30.38,NNW,342,4.0,4.0,68,0.00,,,0.00,Wunderground v.1.15,2013-01-21 14:35:00,
2013-01-21 08:40:00,24.5,15.1,30.37,NNW,331,4.0,4.0,67,0.00,,,0.00,Wunderground v.1.15,2013-01-21 14:40:00,
2013-01-21 08:45:00,24.8,15.4,30.38,North,7,4.0,7.0,67,0.00,,,0.00,Wunderground v.1.15,2013-01-21 14:45:00,
2013-01-21 08:50:00,25.3,15.9,30.38,NW,326,2.0,2.0,67,0.00,,,0.00,Wunderground v.1.15,2013-01-21 14:50:00,
2013-01-21 08:55:00,25.7,15.9,30.38,NW,321,1.0,4.0,66,0.00,,,0.00,Wunderground v.1.15,2013-01-21 14:55:00,
2013-01-21 09:00:00,26.2,15.7,30.38,NNW,341,2.0,7.0,64,0.00,,,0.00,Wunderground v.1.15,2013-01-21 15:00:00,
2013-01-21 09:05:00,26.4,16.2,30.38,NW,326,2.0,7.0,65,0.00,,,0.00,Wunderground v.1.15,2013-01-21 15:05:00,
2013-01-21 09:10:00,26.5,15.6,30.38,WNW,297,2.0,2.0,63,0.00,,,0.00,Wunderground v.1.15,2013-01-21 15:10:00,
2013-01-21 09:15:00,26.5,16.0,30.38,NW,326,1.0,7.0,64,0.00,,,0.00,Wunderground v.1.15,2013-01-21 15:15:00,
2013-01-21 09:20:00,26.6,15.7,30.38,NW,326,1.0,7.0,63,0.00,,,0.00,Wunderground v.1.15,2013-01-21 15:20:00,
2013-01-21 09:25:00,26.9,16.3,30.38,NNW,341,2.0,7.0,64,0.00,,,0.00,Wunderground v.1.15,2013-01-21 15:25:00,
2013-01-21 09:30:00,27.1,15.0,30.38,NW,316,2.0,2.0,60,0.00,,,0.00,Wunderground v.1.15,2013-01-21 15:30:00,
2013-01-21 09:35:00,27.2,15.5,30.38,NNW,344,1.0,7.0,61,0.00,,,0.00,Wunderground v.1.15,2013-01-21 15:35:00,
2013-01-21 09:40:00,27.4,15.3,30.38,WNW,291,2.0,2.0,60,0.00,,,0.00,Wunderground v.1.15,2013-01-21 15:40:00,
2013-01-21 09:45:00,27.6,15.9,30.39,NNW,337,2.0,7.0,61,0.00,,,0.00,Wunderground v.1.15,2013-01-21 15:45:00,
2013-01-21 09:50:00,27.9,15.4,30.39,NNW,345,2.0,7.0,59,0.00,,,0.00,Wunderground v.1.15,2013-01-21 15:50:00,
2013-01-21 09:55:00,28.4,16.3,30.39,NW,314,3.0,7.0,60,0.00,,,0.00,Wunderground v.1.15,2013-01-21 15:55:00,
2013-01-21 10:05:00,29.2,16.2,30.39,NW,306,2.0,7.0,58,0.00,,,0.00,Wunderground v.1.15,2013-01-21 16:05:00,
2013-01-21 10:10:00,29.6,17.0,30.39,NNE,22,1.0,1.0,59,0.00,,,0.00,Wunderground v.1.15,2013-01-21 16:10:00,
2013-01-21 10:15:00,29.8,16.4,30.38,NNW,331,1.0,7.0,57,0.00,,,0.00,Wunderground v.1.15,2013-01-21 16:15:00,
2013-01-21 10:20:00,30.1,16.7,30.38,NW,315,2.0,2.0,57,0.00,,,0.00,Wunderground v.1.15,2013-01-21 16:20:00,
2013-01-21 10:25:00,30.6,16.7,30.38,NNW,337,2.0,5.0,56,0.00,,,0.00,Wunderground v.1.15,2013-01-21 16:25:00,
2013-01-21 10:30:00,30.9,17.0,30.38,NNW,335,2.0,7.0,56,0.00,,,0.00,Wunderground v.1.15,2013-01-21 16:30:00,
2013-01-21 10:40:00,31.7,16.9,30.38,NNW,346,2.0,2.0,54,0.00,,,0.00,Wunderground v.1.15,2013-01-21 16:40:00,
2013-01-21 10:45:00,32.1,16.4,30.37,NW,321,2.0,7.0,52,0.00,,,0.00,Wunderground v.1.15,2013-01-21 16:45:00,
2013-01-21 10:50:00,32.2,16.5,30.37,WNW,299,2.0,7.0,52,0.00,,,0.00,Wunderground v.1.15,2013-01-21 16:50:00,
2013-01-21 10:55:00,32.6,16.9,30.37,WNW,289,2.0,7.0,52,0.00,,,0.00,Wunderground v.1.15,2013-01-21 16:55:00,
2013-01-21 11:00:00,33.2,16.5,30.37,NW,308,2.0,2.0,50,0.00,,,0.00,Wunderground v.1.15,2013-01-21 17:00:00,
2013-01-21 11:05:00,33.7,17.5,30.37,WNW,284,2.0,5.0,51,0.00,,,0.00,Wunderground v.1.15,2013-01-21 17:05:00,
2013-01-21 11:10:00,33.7,17.0,30.36,NW,308,2.0,2.0,50,0.00,,,0.00,Wunderground v.1.15,2013-01-21 17:10:00,
2013-01-21 11:15:00,34.0,17.3,30.36,NW,304,2.0,3.0,50,0.00,,,0.00,Wunderground v.1.15,2013-01-21 17:15:00,
2013-01-21 11:20:00,34.5,17.3,30.36,West,280,2.0,2.0,49,0.00,,,0.00,Wunderground v.1.15,2013-01-21 17:20:00,
2013-01-21 11:25:00,34.9,17.2,30.36,NNW,331,3.0,3.0,48,0.00,,,0.00,Wunderground v.1.15,2013-01-21 17:25:00,
2013-01-21 11:30:00,35.2,17.9,30.36,West,261,2.0,7.0,49,0.00,,,0.00,Wunderground v.1.15,2013-01-21 17:30:00,
2013-01-21 11:35:00,35.3,18.5,30.36,NNW,331,2.0,7.0,50,0.00,,,0.00,Wunderground v.1.15,2013-01-21 17:35:00,
2013-01-21 11:40:00,35.7,17.9,30.36,WNW,297,2.0,7.0,48,0.00,,,0.00,Wunderground v.1.15,2013-01-21 17:40:00,
2013-01-21 11:45:00,35.7,17.4,30.35,NW,304,2.0,7.0,47,0.00,,,0.00,Wunderground v.1.15,2013-01-21 17:45:00,
2013-01-21 11:55:00,36.0,17.7,30.35,NNW,340,2.0,7.0,47,0.00,,,0.00,Wunderground v.1.15,2013-01-21 17:55:00,
2013-01-21 12:00:00,36.3,18.5,30.34,NW,304,2.0,2.0,48,0.00,,,0.00,Wunderground v.1.15,2013-01-21 18:00:00,
2013-01-21 12:05:00,36.1,17.8,30.34,NW,306,3.0,3.0,47,0.00,,,0.00,Wunderground v.1.15,2013-01-21 18:05:00,
2013-01-21 12:10:00,36.3,17.5,30.34,NNW,336,3.0,3.0,46,0.00,,,0.00,Wunderground v.1.15,2013-01-21 18:10:00,
2013-01-21 12:15:00,36.4,17.6,30.33,West,266,3.0,5.0,46,0.00,,,0.00,Wunderground v.1.15,2013-01-21 18:15:00,
2013-01-21 12:20:00,36.5,16.6,30.33,WSW,238,4.0,7.0,44,0.00,,,0.00,Wunderground v.1.15,2013-01-21 18:20:00,
2013-01-21 12:25:00,36.1,17.3,30.33,West,270,3.0,7.0,46,0.00,,,0.00,Wunderground v.1.15,2013-01-21 18:25:00,
2013-01-21 12:30:00,36.4,18.6,30.32,WSW,251,3.0,3.0,48,0.00,,,0.00,Wunderground v.1.15,2013-01-21 18:30:00,
2013-01-21 12:35:00,36.7,16.3,30.32,WSW,254,2.0,7.0,43,0.00,,,0.00,Wunderground v.1.15,2013-01-21 18:35:00,
2013-01-21 12:40:00,36.3,16.4,30.32,West,259,2.0,2.0,44,0.00,,,0.00,Wunderground v.1.15,2013-01-21 18:40:00,
2013-01-21 12:45:00,36.1,17.8,30.32,West,265,1.0,7.0,47,0.00,,,0.00,Wunderground v.1.15,2013-01-21 18:45:00,
2013-01-21 12:50:00,36.5,17.1,30.31,SW,223,1.0,7.0,45,0.00,,,0.00,Wunderground v.1.15,2013-01-21 18:50:00,
2013-01-21 12:55:00,37.0,19.1,30.31,West,269,2.0,7.0,48,0.00,,,0.00,Wunderground v.1.15,2013-01-21 18:55:00,
2013-01-21 13:05:00,37.6,17.6,30.31,WSW,239,3.0,6.0,44,0.00,,,0.00,Wunderground v.1.15,2013-01-21 19:05:00,
2013-01-21 13:10:00,37.7,18.8,30.31,WNW,289,3.0,3.0,46,0.00,,,0.00,Wunderground v.1.15,2013-01-21 19:10:00,
2013-01-21 13:15:00,38.0,19.0,30.30,NW,306,3.0,7.0,46,0.00,,,0.00,Wunderground v.1.15,2013-01-21 19:15:00,
2013-01-21 13:20:00,38.6,19.1,30.30,NW,306,2.0,2.0,45,0.00,,,0.00,Wunderground v.1.15,2013-01-21 19:20:00,
2013-01-21 13:25:00,39.1,20.0,30.30,NW,310,1.0,7.0,46,0.00,,,0.00,Wunderground v.1.15,2013-01-21 19:25:00,
2013-01-21 13:30:00,39.6,20.0,30.30,NNW,339,2.0,2.0,45,0.00,,,0.00,Wunderground v.1.15,2013-01-21 19:30:00,
2013-01-21 13:35:00,39.7,19.5,30.30,NW,326,4.0,4.0,44,0.00,,,0.00,Wunderground v.1.15,2013-01-21 19:35:00,
2013-01-21 13:40:00,39.9,18.6,30.30,NW,305,4.0,7.0,42,0.00,,,0.00,Wunderground v.1.15,2013-01-21 19:40:00,
2013-01-21 13:45:00,40.0,20.3,30.30,West,270,4.0,9.0,45,0.00,,,0.00,Wunderground v.1.15,2013-01-21 19:45:00,
2013-01-21 13:50:00,40.2,18.3,30.30,WSW,255,4.0,7.0,41,0.00,,,0.00,Wunderground v.1.15,2013-01-21 19:50:00,
2013-01-21 13:55:00,40.4,20.2,30.30,West,277,5.0,7.0,44,0.00,,,0.00,Wunderground v.1.15,2013-01-21 19:55:00,
2013-01-21 14:00:00,40.8,20.0,30.30,West,261,4.0,4.0,43,0.00,,,0.00,Wunderground v.1.15,2013-01-21 20:00:00,
2013-01-21 14:05:00,41.0,19.6,30.30,SW,235,4.0,7.0,42,0.00,,,0.00,Wunderground v.1.15,2013-01-21 20:05:00,
2013-01-21 14:10:00,40.8,20.5,30.29,WSW,241,5.0,5.0,44,0.00,,,0.00,Wunderground v.1.15,2013-01-21 20:10:00,
2013-01-21 14:15:00,40.9,20.1,30.30,West,262,4.0,7.0,43,0.00,,,0.00,Wunderground v.1.15,2013-01-21 20:15:00,
2013-01-21 14:20:00,41.2,20.4,30.30,West,269,3.0,7.0,43,0.00,,,0.00,Wunderground v.1.15,2013-01-21 20:20:00,
2013-01-21 14:25:00,41.2,20.4,30.29,WSW,255,4.0,8.0,43,0.00,,,0.00,Wunderground v.1.15,2013-01-21 20:25:00,
2013-01-21 14:30:00,41.4,20.5,30.29,NW,316,4.0,7.0,43,0.00,,,0.00,Wunderground v.1.15,2013-01-21 20:30:00,
2013-01-21 14:35:00,41.5,18.9,30.29,West,266,5.0,7.0,40,0.00,,,0.00,Wunderground v.1.15,2013-01-21 20:35:00,
2013-01-21 14:40:00,41.3,19.3,30.29,WNW,285,5.0,9.0,41,0.00,,,0.00,Wunderground v.1.15,2013-01-21 20:40:00,
2013-01-21 14:45:00,41.3,19.9,30.29,WNW,296,5.0,9.0,42,0.00,,,0.00,Wunderground v.1.15,2013-01-21 20:45:00,
2013-01-21 14:50:00,41.4,20.5,30.29,West,264,5.0,7.0,43,0.00,,,0.00,Wunderground v.1.15,2013-01-21 20:50:00,
2013-01-21 14:55:00,41.3,19.3,30.30,WSW,258,5.0,7.0,41,0.00,,,0.00,Wunderground v.1.15,2013-01-21 20:55:00,
2013-01-21 15:00:00,41.4,20.5,30.30,WNW,297,5.0,5.0,43,0.00,,,0.00,Wunderground v.1.15,2013-01-21 21:00:00,
2013-01-21 15:05:00,41.7,20.3,30.30,WSW,256,3.0,7.0,42,0.00,,,0.00,Wunderground v.1.15,2013-01-21 21:05:00,
2013-01-21 15:10:00,41.9,19.9,30.30,West,259,3.0,3.0,41,0.00,,,0.00,Wunderground v.1.15,2013-01-21 21:10:00,
2013-01-21 15:15:00,41.7,19.7,30.30,SW,227,4.0,5.0,41,0.00,,,0.00,Wunderground v.1.15,2013-01-21 21:15:00,
2013-01-21 15:25:00,41.1,19.7,30.29,West,264,4.0,11.0,42,0.00,,,0.00,Wunderground v.1.15,2013-01-21 21:25:00,
2013-01-21 15:30:00,40.9,19.0,30.29,WNW,285,5.0,5.0,41,0.00,,,0.00,Wunderground v.1.15,2013-01-21 21:30:00,
2013-01-21 15:35:00,40.8,18.9,30.29,West,265,5.0,7.0,41,0.00,,,0.00,Wunderground v.1.15,2013-01-21 21:35:00,
2013-01-21 15:40:00,40.8,20.5,30.30,WSW,247,4.0,4.0,44,0.00,,,0.00,Wunderground v.1.15,2013-01-21 21:40:00,
2013-01-21 15:45:00,40.7,18.8,30.30,West,279,4.0,7.0,41,0.00,,,0.00,Wunderground v.1.15,2013-01-21 21:45:00,
2013-01-21 15:50:00,40.4,18.5,30.30,WNW,298,4.0,4.0,41,0.00,,,0.00,Wunderground v.1.15,2013-01-21 21:50:00,
2013-01-21 16:00:00,40.7,19.9,30.30,WNW,294,2.0,7.0,43,0.00,,,0.00,Wunderground v.1.15,2013-01-21 22:00:00,
2013-01-21 16:05:00,40.4,20.2,30.30,West,277,3.0,7.0,44,0.00,,,0.00,Wunderground v.1.15,2013-01-21 22:05:00,
2013-01-21 16:10:00,40.0,19.3,30.30,WNW,293,3.0,7.0,43,0.00,,,0.00,Wunderground v.1.15,2013-01-21 22:10:00,
2013-01-21 16:15:00,39.6,19.5,30.30,WNW,294,3.0,7.0,44,0.00,,,0.00,Wunderground v.1.15,2013-01-21 22:15:00,
2013-01-21 16:20:00,39.4,20.3,30.30,West,280,3.0,3.0,46,0.00,,,0.00,Wunderground v.1.15,2013-01-21 22:20:00,
2013-01-21 16:25:00,39.0,18.9,30.30,WNW,301,2.0,4.0,44,0.00,,,0.00,Wunderground v.1.15,2013-01-21 22:25:00,
2013-01-21 16:30:00,38.6,19.6,30.30,West,276,3.0,7.0,46,0.00,,,0.00,Wunderground v.1.15,2013-01-21 22:30:00,
2013-01-21 16:35:00,38.1,19.6,30.30,West,273,3.0,9.0,47,0.00,,,0.00,Wunderground v.1.15,2013-01-21 22:35:00,
2013-01-21 16:40:00,37.6,19.7,30.30,WNW,289,3.0,7.0,48,0.00,,,0.00,Wunderground v.1.15,2013-01-21 22:40:00,
2013-01-21 16:45:00,37.3,19.9,30.31,West,264,2.0,7.0,49,0.00,,,0.00,Wunderground v.1.15,2013-01-21 22:45:00,
2013-01-21 16:50:00,36.9,20.9,30.31,NW,305,1.0,7.0,52,0.00,,,0.00,Wunderground v.1.15,2013-01-21 22:50:00,
2013-01-21 16:55:00,36.5,21.0,30.31,WNW,285,2.0,7.0,53,0.00,,,0.00,Wunderground v.1.15,2013-01-21 22:55:00,
2013-01-21 17:00:00,36.0,20.1,30.31,WNW,287,3.0,8.0,52,0.00,,,0.00,Wunderground v.1.15,2013-01-21 23:00:00,
2013-01-21 17:05:00,35.3,19.4,30.31,WNW,295,4.0,8.0,52,0.00,,,0.00,Wunderground v.1.15,2013-01-21 23:05:00,
2013-01-21 17:10:00,34.6,18.8,30.31,WNW,299,3.0,3.0,52,0.00,,,0.00,Wunderground v.1.15,2013-01-21 23:10:00,
2013-01-21 17:15:00,34.1,19.6,30.32,NW,312,2.0,7.0,55,0.00,,,0.00,Wunderground v.1.15,2013-01-21 23:15:00,
2013-01-21 17:20:00,33.6,19.6,30.31,WNW,292,1.0,1.0,56,0.00,,,0.00,Wunderground v.1.15,2013-01-21 23:20:00,
2013-01-21 17:25:00,33.2,19.6,30.32,NW,310,0.0,3.0,57,0.00,,,0.00,Wunderground v.1.15,2013-01-21 23:25:00,
2013-01-21 17:30:00,32.8,19.2,30.31,NW,312,1.0,1.0,57,0.00,,,0.00,Wunderground v.1.15,2013-01-21 23:30:00,
2013-01-21 17:35:00,32.5,18.9,30.31,West,271,1.0,7.0,57,0.00,,,0.00,Wunderground v.1.15,2013-01-21 23:35:00,
2013-01-21 17:40:00,32.2,18.7,30.32,West,280,0.0,7.0,57,0.00,,,0.00,Wunderground v.1.15,2013-01-21 23:40:00,
2013-01-21 17:45:00,31.9,19.2,30.32,WNW,284,0.0,7.0,59,0.00,,,0.00,Wunderground v.1.15,2013-01-21 23:45:00,
2013-01-21 17:50:00,31.6,19.3,30.32,WNW,284,0.0,7.0,60,0.00,,,0.00,Wunderground v.1.15,2013-01-21 23:50:00,
2013-01-21 17:55:00,31.3,19.8,30.32,WNW,284,0.0,7.0,62,0.00,,,0.00,Wunderground v.1.15,2013-01-21 23:55:00,
2013-01-21 18:00:00,31.0,19.5,30.32,WNW,284,0.0,7.0,62,0.00,,,0.00,Wunderground v.1.15,2013-01-22 00:00:00,
2013-01-21 18:05:00,30.6,19.9,30.32,WNW,284,0.0,7.0,64,0.00,,,0.00,Wunderground v.1.15,2013-01-22 00:05:00,
2013-01-21 18:10:00,30.3,20.3,30.32,WNW,284,0.0,7.0,66,0.00,,,0.00,Wunderground v.1.15,2013-01-22 00:10:00,
2013-01-21 18:15:00,30.1,20.1,30.32,WNW,284,0.0,7.0,66,0.00,,,0.00,Wunderground v.1.15,2013-01-22 00:15:00,
2013-01-21 18:20:00,29.8,19.8,30.32,WNW,284,0.0,7.0,66,0.00,,,0.00,Wunderground v.1.15,2013-01-22 00:20:00,
2013-01-21 18:25:00,29.5,19.5,30.32,WNW,284,0.0,7.0,66,0.00,,,0.00,Wunderground v.1.15,2013-01-22 00:25:00,
2013-01-21 18:30:00,29.2,19.6,30.32,WNW,284,0.0,7.0,67,0.00,,,0.00,Wunderground v.1.15,2013-01-22 00:30:00,
2013-01-21 18:35:00,29.0,19.8,30.32,WNW,284,0.0,7.0,68,0.00,,,0.00,Wunderground v.1.15,2013-01-22 00:35:00,
2013-01-21 18:40:00,28.8,19.6,30.32,WNW,284,0.0,7.0,68,0.00,,,0.00,Wunderground v.1.15,2013-01-22 00:40:00,
2013-01-21 18:45:00,28.5,19.3,30.32,WNW,284,0.0,7.0,68,0.00,,,0.00,Wunderground v.1.15,2013-01-22 00:45:00,
2013-01-21 18:55:00,28.2,19.3,30.33,WNW,302,0.0,7.0,69,0.00,,,0.00,Wunderground v.1.15,2013-01-22 00:55:00,
2013-01-21 19:00:00,28.1,19.2,30.33,NW,304,1.0,1.0,69,0.00,,,0.00,Wunderground v.1.15,2013-01-22 01:00:00,
2013-01-21 19:05:00,28.1,19.2,30.33,WNW,295,1.0,3.0,69,0.00,,,0.00,Wunderground v.1.15,2013-01-22 01:05:00,
2013-01-21 19:10:00,28.1,18.9,30.33,WNW,291,1.0,1.0,68,0.00,,,0.00,Wunderground v.1.15,2013-01-22 01:10:00,
2013-01-21 19:15:00,28.2,19.0,30.33,NW,310,1.0,7.0,68,0.00,,,0.00,Wunderground v.1.15,2013-01-22 01:15:00,
2013-01-21 19:20:00,28.2,19.3,30.33,NW,310,0.0,7.0,69,0.00,,,0.00,Wunderground v.1.15,2013-01-22 01:20:00,
2013-01-21 19:25:00,28.0,18.8,30.33,WNW,302,0.0,7.0,68,0.00,,,0.00,Wunderground v.1.15,2013-01-22 01:25:00,
2013-01-21 19:30:00,27.9,18.7,30.33,WNW,302,0.0,7.0,68,0.00,,,0.00,Wunderground v.1.15,2013-01-22 01:30:00,
2013-01-21 19:35:00,27.7,18.8,30.33,WNW,303,0.0,7.0,69,0.00,,,0.00,Wunderground v.1.15,2013-01-22 01:35:00,
2013-01-21 19:40:00,27.6,19.1,30.33,NW,312,0.0,7.0,70,0.00,,,0.00,Wunderground v.1.15,2013-01-22 01:40:00,
2013-01-21 19:45:00,27.4,18.2,30.33,West,275,1.0,7.0,68,0.00,,,0.00,Wunderground v.1.15,2013-01-22 01:45:00,
2013-01-21 19:50:00,27.4,18.6,30.33,NW,305,1.0,7.0,69,0.00,,,0.00,Wunderground v.1.15,2013-01-22 01:50:00,
2013-01-21 19:55:00,27.3,18.1,30.33,NW,311,1.0,7.0,68,0.00,,,0.00,Wunderground v.1.15,2013-01-22 01:55:00,
2013-01-21 20:00:00,27.2,17.3,30.33,NW,306,1.0,1.0,66,0.00,,,0.00,Wunderground v.1.15,2013-01-22 02:00:00,
2013-01-21 20:05:00,27.2,17.3,30.33,NW,321,1.0,7.0,66,0.00,,,0.00,Wunderground v.1.15,2013-01-22 02:05:00,
2013-01-21 20:10:00,27.0,17.5,30.33,NW,304,1.0,1.0,67,0.00,,,0.00,Wunderground v.1.15,2013-01-22 02:10:00,
2013-01-21 20:15:00,27.0,18.2,30.33,NW,306,0.0,7.0,69,0.00,,,0.00,Wunderground v.1.15,2013-01-22 02:15:00,
2013-01-21 20:20:00,26.9,17.7,30.33,NNW,331,1.0,7.0,68,0.00,,,0.00,Wunderground v.1.15,2013-01-22 02:20:00,
2013-01-21 20:25:00,27.0,16.8,30.33,North,351,2.0,7.0,65,0.00,,,0.00,Wunderground v.1.15,2013-01-22 02:25:00,
2013-01-21 20:30:00,27.2,16.3,30.33,NNW,331,2.0,2.0,63,0.00,,,0.00,Wunderground v.1.15,2013-01-22 02:30:00,
2013-01-21 20:35:00,27.2,16.6,30.33,WNW,302,1.0,7.0,64,0.00,,,0.00,Wunderground v.1.15,2013-01-22 02:35:00,
2013-01-21 20:40:00,27.1,16.2,30.33,NW,316,0.0,7.0,63,0.00,,,0.00,Wunderground v.1.15,2013-01-22 02:40:00,
2013-01-21 20:45:00,26.9,16.3,30.34,NW,316,0.0,7.0,64,0.00,,,0.00,Wunderground v.1.15,2013-01-22 02:45:00,
2013-01-21 20:50:00,26.7,16.5,30.34,NW,316,0.0,7.0,65,0.00,,,0.00,Wunderground v.1.15,2013-01-22 02:50:00,
2013-01-21 20:55:00,26.5,17.0,30.34,NW,321,0.0,7.0,67,0.00,,,0.00,Wunderground v.1.15,2013-01-22 02:55:00,
2013-01-21 21:00:00,26.3,16.8,30.34,NW,321,0.0,7.0,67,0.00,,,0.00,Wunderground v.1.15,2013-01-22 03:00:00,
2013-01-21 21:05:00,26.1,16.6,30.34,NW,321,0.0,7.0,67,0.00,,,0.00,Wunderground v.1.15,2013-01-22 03:05:00,
2013-01-21 21:10:00,25.8,16.7,30.34,NW,321,0.0,7.0,68,0.00,,,0.00,Wunderground v.1.15,2013-01-22 03:10:00,
2013-01-21 21:20:00,25.2,16.8,30.34,NW,321,0.0,7.0,70,0.00,,,0.00,Wunderground v.1.15,2013-01-22 03:20:00,
2013-01-21 21:25:00,25.1,17.0,30.34,NW,321,0.0,7.0,71,0.00,,,0.00,Wunderground v.1.15,2013-01-22 03:25:00,
2013-01-21 21:30:00,24.9,16.8,30.35,NW,321,0.0,7.0,71,0.00,,,0.00,Wunderground v.1.15,2013-01-22 03:30:00,
2013-01-21 21:35:00,24.7,16.6,30.35,NW,321,0.0,7.0,71,0.00,,,0.00,Wunderground v.1.15,2013-01-22 03:35:00,
2013-01-21 21:40:00,24.5,16.8,30.35,NW,321,0.0,7.0,72,0.00,,,0.00,Wunderground v.1.15,2013-01-22 03:40:00,
2013-01-21 21:45:00,24.4,16.7,30.35,NW,321,0.0,7.0,72,0.00,,,0.00,Wunderground v.1.15,2013-01-22 03:45:00,
2013-01-21 21:50:00,24.3,16.9,30.35,NW,321,0.0,7.0,73,0.00,,,0.00,Wunderground v.1.15,2013-01-22 03:50:00,
2013-01-21 22:00:00,24.2,17.1,30.36,NW,321,0.0,7.0,74,0.00,,,0.00,Wunderground v.1.15,2013-01-22 04:00:00,
2013-01-21 22:05:00,24.2,17.1,30.36,NW,321,0.0,7.0,74,0.00,,,0.00,Wunderground v.1.15,2013-01-22 04:05:00,
2013-01-21 22:10:00,24.2,17.1,30.36,NW,321,0.0,7.0,74,0.00,,,0.00,Wunderground v.1.15,2013-01-22 04:10:00,
2013-01-21 22:15:00,24.4,17.3,30.36,NW,321,0.0,7.0,74,0.00,,,0.00,Wunderground v.1.15,2013-01-22 04:15:00,
2013-01-21 22:20:00,24.5,17.7,30.36,NW,321,0.0,7.0,75,0.00,,,0.00,Wunderground v.1.15,2013-01-22 04:20:00,
2013-01-21 22:25:00,24.7,17.6,30.36,NW,321,0.0,7.0,74,0.00,,,0.00,Wunderground v.1.15,2013-01-22 04:25:00,
2013-01-21 22:30:00,24.9,16.5,30.37,NNW,342,1.0,7.0,70,0.00,,,0.00,Wunderground v.1.15,2013-01-22 04:30:00,
2013-01-21 22:35:00,25.2,15.4,30.37,NNE,12,4.0,7.0,66,0.00,,,0.00,Wunderground v.1.15,2013-01-22 04:35:00,
2013-01-21 22:40:00,25.3,15.5,30.37,North,360,4.0,4.0,66,0.00,,,0.00,Wunderground v.1.15,2013-01-22 04:40:00,
2013-01-21 22:45:00,25.2,15.1,30.37,North,3,3.0,7.0,65,0.00,,,0.00,Wunderground v.1.15,2013-01-22 04:45:00,
2013-01-21 22:50:00,25.0,14.2,30.37,North,1,4.0,4.0,63,0.00,,,0.00,Wunderground v.1.15,2013-01-22 04:50:00,
2013-01-21 22:55:00,24.8,13.2,30.37,NW,321,5.0,6.0,61,0.00,,,0.00,Wunderground v.1.15,2013-01-22 04:55:00,
2013-01-21 23:00:00,24.4,12.1,30.37,NNW,344,6.0,6.0,59,0.00,,,0.00,Wunderground v.1.15,2013-01-22 05:00:00,
2013-01-21 23:05:00,24.1,11.8,30.37,NNE,20,6.0,7.0,59,0.00,,,0.00,Wunderground v.1.15,2013-01-22 05:05:00,
2013-01-21 23:10:00,23.8,11.9,30.37,North,8,6.0,7.0,60,0.00,,,0.00,Wunderground v.1.15,2013-01-22 05:10:00,
2013-01-21 23:15:00,23.6,12.1,30.37,North,10,5.0,7.0,61,0.00,,,0.00,Wunderground v.1.15,2013-01-22 05:15:00,
2013-01-21 23:20:00,23.5,12.0,30.38,North,351,4.0,9.0,61,0.00,,,0.00,Wunderground v.1.15,2013-01-22 05:20:00,
2013-01-21 23:25:00,23.4,11.5,30.38,North,3,5.0,9.0,60,0.00,,,0.00,Wunderground v.1.15,2013-01-22 05:25:00,
2013-01-21 23:30:00,23.4,11.9,30.38,NNE,16,5.0,7.0,61,0.00,,,0.00,Wunderground v.1.15,2013-01-22 05:30:00,
2013-01-21 23:35:00,23.4,11.9,30.38,North,8,4.0,7.0,61,0.00,,,0.00,Wunderground v.1.15,2013-01-22 05:35:00,
2013-01-21 23:40:00,23.3,11.4,30.38,North,2,3.0,7.0,60,0.00,,,0.00,Wunderground v.1.15,2013-01-22 05:40:00,
2013-01-21 23:45:00,23.3,11.1,30.39,North,352,4.0,7.0,59,0.00,,,0.00,Wunderground v.1.15,2013-01-22 05:45:00,
2013-01-21 23:50:00,23.3,11.4,30.38,NNE,19,4.0,4.0,60,0.00,,,0.00,Wunderground v.1.15,2013-01-22 05:50:00,
2013-01-21 23:55:00,23.2,11.4,30.38,North,360,4.0,7.0,60,0.00,,,0.00,Wunderground v.1.15,2013-01-22 05:55:00,